TimeEST,TemperatureF,Dew PointF,Humidity,Sea Level PressureIn,VisibilityMPH,Wind Direction,Wind SpeedMPH,Gust SpeedMPH,PrecipitationIn,Events,Conditions,WindDirDegrees,DateUTC
12:15 AM,42.8,-9999,N/A,29.96,10.0,SSW,12.7,17.3,N/A,,Scattered Clouds,210,2013-02-05 05:15:00
12:35 AM,44.6,24.8,46,29.96,10.0,SW,10.4,20.7,N/A,,Mostly Cloudy,220,2013-02-05 05:35:00
12:56 AM,44.6,24.8,46,29.95,10.0,SSW,12.7,19.6,N/A,,Mostly Cloudy,210,2013-02-05 05:56:00
1:15 AM,44.6,24.8,46,29.95,10.0,SSW,11.5,17.3,N/A,,Scattered Clouds,210,2013-02-05 06:15:00
1:57 AM,44.6,24.8,46,29.94,10.0,SW,13.8,20.7,N/A,,Overcast,220,2013-02-05 06:57:00
2:16 AM,44.6,26.6,49,29.93,10.0,SW,15.0,-,N/A,,Overcast,220,2013-02-05 07:16:00
2:36 AM,44.6,26.6,49,29.93,10.0,SW,16.1,21.9,N/A,,Mostly Cloudy,220,2013-02-05 07:36:00
2:56 AM,44.6,26.6,49,29.93,10.0,SW,11.5,19.6,N/A,,Mostly Cloudy,220,2013-02-05 07:56:00
3:16 AM,44.6,26.6,49,29.92,10.0,SW,10.4,17.3,N/A,,Overcast,220,2013-02-05 08:16:00
3:36 AM,44.6,26.6,49,29.92,10.0,SW,12.7,18.4,N/A,,Overcast,220,2013-02-05 08:36:00
3:56 AM,44.6,26.6,49,29.92,10.0,SW,10.4,-,N/A,,Overcast,230,2013-02-05 08:56:00
4:16 AM,44.6,26.6,49,29.91,10.0,SW,12.7,19.6,N/A,,Overcast,230,2013-02-05 09:16:00
4:36 AM,44.6,28.4,53,29.91,10.0,SW,13.8,17.3,N/A,,Overcast,230,2013-02-05 09:36:00
4:56 AM,44.6,28.4,53,29.91,10.0,SW,11.5,-,N/A,,Overcast,230,2013-02-05 09:56:00
5:16 AM,44.6,28.4,53,29.92,-9999.0,SW,9.2,-,N/A,,Unknown,230,2013-02-05 10:16:00
5:36 AM,44.6,28.4,53,29.91,-9999.0,SW,9.2,-,N/A,,Unknown,230,2013-02-05 10:36:00
5:57 AM,44.6,28.4,53,29.91,10.0,SSW,8.1,-,N/A,,Overcast,210,2013-02-05 10:57:00
6:16 AM,44.6,28.4,53,29.91,10.0,SW,6.9,-,N/A,,Overcast,220,2013-02-05 11:16:00
6:56 AM,44.6,28.4,53,29.93,10.0,SW,4.6,-,N/A,,Mostly Cloudy,220,2013-02-05 11:56:00
7:18 AM,44.6,28.4,53,29.93,10.0,SSW,5.8,-,N/A,,Mostly Cloudy,210,2013-02-05 12:18:00
7:36 AM,42.8,28.4,57,29.93,10.0,SSW,8.1,-,N/A,,Scattered Clouds,210,2013-02-05 12:36:00
7:56 AM,44.6,28.4,53,29.93,10.0,SW,6.9,-,N/A,,Scattered Clouds,220,2013-02-05 12:56:00
8:15 AM,44.6,30.2,57,29.93,10.0,SW,5.8,-,N/A,,Scattered Clouds,230,2013-02-05 13:15:00
8:38 AM,44.6,30.2,57,29.93,10.0,SW,5.8,-,N/A,,Scattered Clouds,220,2013-02-05 13:38:00
8:55 AM,44.6,30.2,57,29.94,10.0,SW,6.9,-,N/A,,Mostly Cloudy,230,2013-02-05 13:55:00
9:15 AM,44.6,30.2,57,29.93,10.0,SSW,5.8,-,N/A,,Overcast,210,2013-02-05 14:15:00
9:36 AM,44.6,30.2,57,29.93,10.0,SSW,6.9,-,N/A,,Mostly Cloudy,210,2013-02-05 14:36:00
9:56 AM,44.6,30.2,57,29.93,10.0,SW,9.2,-,N/A,,Scattered Clouds,220,2013-02-05 14:56:00
10:15 AM,44.6,30.2,57,29.94,10.0,SW,8.1,-,N/A,,Mostly Cloudy,230,2013-02-05 15:15:00
10:36 AM,44.6,30.2,57,29.94,10.0,SW,9.2,-,N/A,,Light Drizzle,220,2013-02-05 15:36:00
10:56 AM,46.4,32.0,57,29.94,10.0,SW,9.2,-,N/A,,Mostly Cloudy,220,2013-02-05 15:56:00
11:16 AM,46.4,30.2,53,29.93,10.0,SW,8.1,-,N/A,,Overcast,220,2013-02-05 16:16:00
11:36 AM,46.4,30.2,53,29.92,10.0,SW,6.9,-,N/A,,Overcast,230,2013-02-05 16:36:00
11:56 AM,46.4,30.2,53,29.92,10.0,SW,8.1,-,N/A,Rain,Light Rain,230,2013-02-05 16:56:00
12:15 PM,46.4,33.8,62,29.91,10.0,WSW,6.9,-,N/A,Rain,Light Rain,240,2013-02-05 17:15:00
12:36 PM,46.4,33.8,62,29.90,10.0,SW,8.1,-,N/A,,Scattered Clouds,230,2013-02-05 17:36:00
12:55 PM,46.4,33.8,62,29.90,10.0,SW,8.1,-,N/A,,Mostly Cloudy,230,2013-02-05 17:55:00
1:16 PM,48.2,32.0,54,29.88,10.0,West,8.1,-,N/A,,Scattered Clouds,260,2013-02-05 18:16:00
1:37 PM,48.2,30.2,50,29.88,10.0,West,9.2,-,N/A,,Mostly Cloudy,270,2013-02-05 18:37:00
1:56 PM,48.2,30.2,50,29.87,10.0,West,6.9,-,N/A,,Mostly Cloudy,270,2013-02-05 18:56:00
2:16 PM,48.2,30.2,50,29.86,10.0,WSW,9.2,-,N/A,,Mostly Cloudy,240,2013-02-05 19:16:00
2:35 PM,48.2,32.0,54,29.86,10.0,SW,5.8,-,N/A,,Mostly Cloudy,230,2013-02-05 19:35:00
2:56 PM,48.2,32.0,54,29.86,10.0,SW,6.9,-,N/A,,Overcast,220,2013-02-05 19:56:00
3:15 PM,48.2,32.0,54,29.86,10.0,WSW,6.9,-,N/A,,Overcast,240,2013-02-05 20:15:00
3:35 PM,48.2,32.0,54,29.85,10.0,SW,3.5,-,N/A,,Overcast,230,2013-02-05 20:35:00
3:56 PM,48.2,32.0,54,29.86,10.0,West,3.5,-,N/A,,Overcast,280,2013-02-05 20:56:00
4:16 PM,48.2,32.0,54,29.87,10.0,WSW,3.5,-,N/A,,Overcast,240,2013-02-05 21:16:00
4:36 PM,48.2,33.8,58,29.86,10.0,SSW,3.5,-,N/A,,Overcast,210,2013-02-05 21:36:00
4:56 PM,48.2,33.8,58,29.87,10.0,South,3.5,-,N/A,,Overcast,190,2013-02-05 21:56:00
5:15 PM,48.2,33.8,58,29.87,10.0,Calm,Calm,-,N/A,,Mostly Cloudy,0,2013-02-05 22:15:00
5:36 PM,46.4,33.8,62,29.88,10.0,NE,3.5,-,N/A,,Scattered Clouds,50,2013-02-05 22:36:00
5:57 PM,44.6,33.8,66,29.88,10.0,Calm,Calm,-,N/A,,Clear,0,2013-02-05 22:57:00
6:15 PM,42.8,33.8,70,29.87,10.0,SSW,4.6,-,N/A,,Clear,210,2013-02-05 23:15:00
6:35 PM,42.8,33.8,70,29.88,10.0,South,3.5,-,N/A,,Clear,180,2013-02-05 23:35:00
6:55 PM,41.0,33.8,76,29.88,10.0,South,4.6,-,N/A,,Clear,170,2013-02-05 23:55:00
7:16 PM,41.0,33.8,76,29.89,10.0,SSE,4.6,-,N/A,,Clear,150,2013-02-06 00:16:00
7:36 PM,39.2,33.8,81,29.89,10.0,SSE,5.8,-,N/A,,Clear,150,2013-02-06 00:36:00
7:56 PM,41.0,33.8,76,29.89,10.0,Calm,Calm,-,N/A,,Clear,0,2013-02-06 00:56:00
8:16 PM,42.8,33.8,70,29.89,10.0,South,4.6,-,N/A,,Scattered Clouds,180,2013-02-06 01:16:00
9:15 PM,44.6,33.8,66,29.89,10.0,SSW,4.6,-,N/A,,Clear,200,2013-02-06 02:15:00
9:36 PM,42.8,33.8,70,29.90,10.0,Calm,Calm,-,N/A,,Clear,0,2013-02-06 02:36:00
9:57 PM,39.2,33.8,81,29.91,10.0,SSW,4.6,-,N/A,,Clear,210,2013-02-06 02:57:00
10:16 PM,39.2,33.8,81,29.91,10.0,SW,4.6,-,N/A,,Clear,220,2013-02-06 03:16:00
10:36 PM,39.2,33.8,81,29.91,10.0,SW,4.6,-,N/A,,Clear,230,2013-02-06 03:36:00
10:56 PM,39.2,33.8,81,29.91,10.0,WSW,4.6,-,N/A,,Scattered Clouds,240,2013-02-06 03:56:00
11:15 PM,42.8,35.6,76,29.91,10.0,WSW,4.6,-,N/A,,Mostly Cloudy,250,2013-02-06 04:15:00
11:36 PM,44.6,35.6,71,29.92,10.0,WSW,8.1,-,N/A,,Mostly Cloudy,250,2013-02-06 04:36:00
11:55 PM,46.4,35.6,66,29.92,10.0,West,5.8,-,N/A,,Scattered Clouds,260,2013-02-06 04:55:00